Location: *
(58.7167°N, 26.1833°E)
Time: 13:41:34
(UTC+00:00)

Okean 2 Rocket - Pass Details

Date: 25 August 2019
Orbit: 617 x 641 km, 82.5° (Epoch: 22 October)

Event Time Altitude Azimuth Distance (km) Brightness Sun altitude
Exits shadow 20:42:54 12° 219° (SW) 1,841 5.2 -18.1°
Maximum altitude 20:46:45 45° 291° (WNW) 853 4.0 -18.3°
Drops below altitude 10° 20:51:03 10° 5° (N) 2,016 6.6 -18.5°
Sets 20:53:23 0° 12° (NNE) 2,932 7.5 -18.6°
